Theta_e
344 346 346 345 345 345 345 345 346 347 347 347 346 345 344 343 343 345 344 343 343 343 343 344 345 345 346 348 348 346 346 348 347 345 343 342 342 343 343 345 345 348
343 345 346 346 345 344 344 344 346 346 347 347 346 345 345 343 343 345 345 344 343 343 343 344 346 346 347 348 347 346 346 347 349 348 345 343 343 343 343 344 345 347
343 345 345 345 344 343 343 344 345 346 346 346 344 344 343 343 344 346 347 345 344 344 343 344 345 347 347 347 345 345 346 345 347 348 347 345 345 345 345 343 344 346
341 343 343 343 343 342 343 343 344 345 345 345 344 343 343 343 344 346 347 347 345 345 345 344 345 345 345 345 344 343 344 344 345 346 345 344 345 347 347 345 345 346
338 340 340 341 341 341 342 343 343 343 343 343 342 343 344 344 343 344 345 346 345 345 346 346 345 345 344 344 343 343 343 344 345 344 344 344 345 346 347 346 347 348
336 337 338 338 339 339 341 342 342 342 342 341 341 343 345 345 344 343 344 345 345 345 346 347 347 346 344 344 343 343 343 344 345 345 344 344 344 345 346 346 346 348
335 336 336 337 336 337 340 341 341 342 341 340 341 343 345 346 346 345 345 347 347 346 346 347 347 347 345 343 343 344 344 344 344 344 344 344 343 344 346 346 345 347
334 334 335 335 335 336 339 340 341 341 342 342 343 344 345 346 347 348 348 349 349 349 348 346 346 346 345 344 344 344 344 344 344 344 344 344 344 344 344 344 344 345
333 333 334 335 335 336 338 341 341 341 343 344 345 346 347 347 348 349 350 350 350 350 350 349 347 345 344 345 345 345 344 344 344 343 344 345 345 344 344 344 343 344
335 334 334 335 335 337 339 341 341 342 343 345 346 348 349 350 349 349 350 351 350 350 351 351 351 348 346 346 347 347 348 348 347 345 344 345 345 345 344 343 344 344
340 337 337 337 337 338 340 342 342 342 343 347 349 351 352 352 352 351 352 352 352 351 350 351 352 352 349 347 348 350 351 352 351 350 348 346 346 346 345 344 344 344
343 342 341 341 340 339 339 340 342 342 344 348 352 353 353 353 353 353 353 353 352 351 350 350 350 350 348 346 346 349 351 351 351 352 351 350 349 349 349 349 348 347
344 344 344 345 344 344 343 342 341 341 343 347 351 353 352 352 353 353 353 353 352 351 351 351 350 349 349 347 347 348 349 349 349 349 349 350 351 351 351 351 350 349
345 345 345 346 346 347 348 348 346 344 344 347 350 352 352 352 352 352 353 352 352 351 351 351 351 350 349 349 350 350 349 348 348 348 347 347 349 351 351 351 350 349
345 343 343 345 345 346 347 348 349 348 347 348 350 352 352 352 353 352 353 353 352 351 351 352 352 352 350 350 350 350 349 347 347 348 348 347 346 349 352 352 351 351
344 343 345 346 347 347 347 346 348 349 349 349 351 351 351 352 353 353 353 352 352 351 351 351 352 352 351 350 350 350 348 346 345 345 347 348 347 348 351 352 352 351
347 348 349 349 349 349 348 347 348 349 350 350 350 351 351 351 352 352 352 352 352 352 352 351 351 351 351 351 351 351 350 348 345 343 344 348 349 348 347 350 352 353
350 350 350 349 349 349 348 347 347 348 349 350 350 351 351 351 351 350 349 350 350 350 351 351 351 350 350 350 351 351 350 350 348 345 343 347 349 348 346 346 350 352
349 349 349 349 349 348 347 347 347 346 347 348 350 351 352 351 350 349 349 349 350 351 351 351 351 350 350 350 351 351 350 350 349 347 347 348 349 350 348 348 350 352
346 347 348 349 349 349 348 348 348 346 346 346 349 350 350 350 349 349 349 349 349 351 352 352 351 350 349 349 350 350 350 349 348 348 349 350 349 349 349 349 349 351
344 346 347 348 349 349 349 349 349 349 348 348 349 349 350 350 350 349 350 349 348 349 350 351 351 350 349 349 349 349 349 348 348 349 350 351 350 349 349 348 345 346
346 347 347 347 348 349 350 349 349 350 350 350 349 348 349 350 351 351 351 350 349 349 350 350 350 349 349 350 349 349 348 347 347 349 351 351 351 350 350 348 346 345
349 350 350 349 350 352 352 351 351 351 351 350 350 350 351 351 351 350 351 351 351 350 350 350 350 350 350 350 349 349 348 348 347 349 351 351 351 351 349 347 347 348
351 351 352 351 352 353 353 352 353 352 351 351 351 351 351 351 350 350 350 351 351 351 351 350 349 350 350 350 350 349 349 349 349 349 350 351 350 350 350 349 347 348
348 349 350 350 350 349 349 349 349 349 349 349 349 348 348 348 349 349 349 350 350 351 351 350 350 350 350 350 350 350 350 349 349 349 349 349 349 349 350 349 346 346
344 343 344 345 346 346 346 346 347 347 347 347 348 348 348 348 348 348 348 349 348 348 349 350 350 350 350 350 350 350 350 349 349 349 348 348 348 349 349 348 346 345
Wind_Speed
24 22 20 19 18 17 15 14 14 14 14 14 13 13 12 12 11 11 11 11 12 12 12 12 12 12 12 11 10 10 9 8 8 8 9 10 10 10 10 10 10 9
25 23 22 20 20 18 17 16 15 15 14 14 13 12 12 11 11 11 12 12 13 13 12 12 13 12 12 12 11 11 10 9 9 9 10 10 10 10 11 11 11 10
26 25 23 22 21 20 19 18 17 17 15 14 14 13 12 12 11 12 13 13 13 12 12 12 12 12 12 11 11 11 11 10 10 11 11 10 11 11 11 12 11 11
27 26 24 23 23 21 20 20 19 18 17 16 15 13 13 13 12 13 13 14 13 12 13 13 12 12 12 12 12 11 11 11 11 12 12 12 12 12 11 11 12 12
28 27 25 24 23 22 21 21 19 18 18 17 16 15 14 14 14 14 14 14 14 13 14 14 13 12 13 13 13 11 11 12 11 12 13 12 12 12 12 12 12 12
28 28 26 24 23 23 22 21 19 18 18 18 17 16 16 16 16 15 15 14 14 14 14 14 13 13 14 14 13 12 12 12 12 13 13 12 11 12 12 12 12 12
29 28 27 25 24 24 23 21 19 18 18 18 18 17 17 17 17 16 15 15 14 14 14 14 14 14 14 14 14 13 13 13 13 13 12 11 10 12 12 13 13 12
29 28 27 26 25 24 24 22 20 19 19 19 18 18 18 18 18 17 16 15 15 15 14 14 14 14 14 15 15 14 14 14 13 13 12 11 11 12 12 12 13 12
28 28 27 26 26 25 25 23 22 20 19 19 19 18 17 18 18 17 16 15 15 15 14 13 14 14 15 15 15 14 14 14 13 13 12 11 11 11 11 12 13 13
27 27 27 27 26 26 25 23 22 21 20 19 18 17 17 17 17 17 15 15 15 14 14 13 14 14 15 15 15 14 13 13 13 13 13 12 11 12 12 12 13 12
25 26 26 26 26 26 25 24 22 21 20 19 17 17 16 15 15 15 14 14 15 15 15 15 15 16 15 16 17 15 13 12 13 13 14 13 12 12 13 13 13 13
24 24 24 25 25 25 25 25 24 23 22 20 18 17 17 16 16 15 14 15 16 17 17 17 17 17 17 17 18 17 16 15 15 15 15 14 13 13 13 14 14 13
24 24 24 24 25 25 25 25 24 24 23 22 19 18 18 18 18 17 16 17 18 18 17 17 18 18 18 18 18 18 18 17 17 17 17 16 14 14 14 15 15 13
25 25 25 26 26 26 26 25 25 25 24 23 21 20 19 19 18 17 17 18 19 18 18 18 18 19 20 20 20 20 20 19 19 19 19 18 17 15 15 15 15 14
25 25 24 25 26 26 25 25 25 26 26 25 23 22 21 20 19 19 20 20 20 19 19 20 20 20 20 20 21 20 20 20 20 20 21 20 19 18 17 16 17 17
25 25 24 22 22 23 22 22 22 23 25 26 25 24 23 22 22 23 23 23 23 21 21 21 22 22 21 21 21 21 21 20 20 21 22 22 21 20 19 18 18 18
24 25 24 22 21 21 20 19 20 21 22 23 24 24 24 24 24 24 24 25 25 25 23 22 22 22 22 22 21 21 22 22 21 21 22 23 23 22 21 20 18 19
24 25 24 23 22 21 20 19 20 21 21 22 22 23 24 24 24 24 25 26 27 27 27 25 23 22 23 23 23 22 22 23 23 22 22 23 24 24 22 20 18 18
24 26 26 25 23 22 21 21 20 20 20 21 22 23 23 24 24 23 24 25 26 28 30 28 24 23 24 24 24 23 24 24 25 24 23 23 23 24 24 21 19 19
21 24 26 26 25 25 24 23 22 21 21 22 23 23 23 24 24 24 24 25 26 28 29 29 28 26 24 24 24 24 25 26 26 26 25 24 23 24 24 22 21 21
19 22 23 24 26 26 26 25 24 24 24 24 25 25 24 25 25 25 24 24 24 25 27 29 29 27 25 24 24 24 26 27 27 27 27 26 24 24 24 24 22 22
22 24 24 26 28 29 29 28 26 26 25 26 27 28 29 27 25 24 23 23 24 24 26 27 26 24 24 25 25 26 27 27 27 28 29 27 26 25 26 26 25 25
26 26 26 27 27 28 29 28 28 29 29 30 31 31 30 28 27 26 25 26 26 26 27 28 27 25 25 26 26 27 28 28 27 29 30 30 28 28 28 28 28 29
23 24 23 22 22 23 23 24 27 29 30 31 31 29 27 27 27 27 26 26 27 27 28 31 31 29 27 27 27 27 27 28 28 30 31 31 30 30 30 30 30 30
16 18 20 19 19 19 17 17 20 22 24 25 26 26 26 25 24 23 22 23 23 24 26 29 30 29 28 28 29 29 29 29 29 30 31 31 31 31 31 30 30 29
13 12 13 13 14 15 14 14 15 16 17 18 19 21 22 21 20 20 21 22 22 21 22 24 26 27 28 30 31 31 31 30 30 30 30 30 29 29 29 29 28 27
Wind_Direction
222 224 225 227 227 228 230 231 233 233 231 230 231 232 233 233 228 228 231 231 233 236 238 239 240 239 240 245 246 243 242 236 235 243 243 244 251 254 255 257 256 252
222 225 227 230 230 231 233 233 235 235 233 233 233 232 234 235 233 233 234 234 235 239 240 242 245 245 243 248 251 250 250 246 244 249 247 246 249 252 254 254 253 253
221 224 227 230 231 232 234 235 233 233 235 235 234 233 234 236 235 235 237 236 237 239 242 244 247 248 248 249 252 254 256 256 255 254 253 253 252 252 252 251 250 252
220 223 227 230 233 234 236 234 232 232 234 235 234 235 237 238 235 233 236 238 239 239 241 244 245 248 250 251 253 256 258 261 260 255 254 256 256 254 252 250 249 250
221 224 227 229 232 236 236 234 233 233 235 236 235 235 237 239 237 234 236 239 239 239 238 240 244 247 249 250 253 257 258 260 260 258 257 257 256 253 251 250 248 247
221 224 227 228 231 235 236 234 233 234 234 235 235 235 236 238 238 237 238 240 241 240 238 239 243 245 247 248 251 255 257 257 257 258 259 259 257 254 252 254 250 244
221 224 227 228 230 234 236 235 233 232 231 232 234 235 235 236 238 239 239 239 241 241 240 240 243 246 249 250 251 254 256 256 256 256 258 260 260 257 254 255 253 247
222 223 226 229 231 233 235 235 234 232 232 233 235 235 236 237 238 240 240 240 242 244 244 243 243 247 249 251 251 252 254 256 255 254 256 258 259 258 256 254 254 251
223 224 226 229 231 233 235 236 236 235 235 236 236 236 237 237 238 240 242 245 246 245 245 247 248 248 248 249 249 250 254 256 255 253 253 253 252 252 250 251 254 256
225 224 226 229 231 232 234 237 237 237 238 238 237 236 235 237 240 242 244 249 251 250 250 253 252 250 247 245 244 244 249 253 255 254 252 250 247 243 242 246 251 254
227 226 226 229 232 232 234 237 239 239 238 236 236 236 236 236 239 242 245 249 250 250 250 250 249 247 244 240 236 234 236 242 247 250 251 249 247 243 241 243 247 250
229 229 229 231 234 235 236 238 239 239 238 234 235 238 240 238 237 241 247 250 250 248 247 247 248 247 245 242 238 236 238 241 241 242 244 247 249 248 246 246 248 249
229 231 232 234 235 236 238 240 241 240 238 235 234 238 244 242 238 239 245 249 250 250 250 250 249 248 247 246 242 242 246 248 246 243 242 242 244 246 247 248 247 245
228 230 231 233 234 233 234 236 238 239 239 238 236 238 243 242 239 240 243 247 250 251 251 252 253 253 250 248 247 249 252 253 252 249 246 243 240 238 242 245 242 239
231 233 234 236 237 237 235 233 232 234 236 237 235 236 238 239 240 244 246 248 250 251 253 254 257 258 256 253 251 253 257 257 253 250 249 246 241 236 237 240 241 240
229 231 234 237 238 237 238 234 229 229 231 234 235 237 236 236 241 247 250 252 253 254 256 258 258 260 260 259 256 257 260 259 254 250 246 244 244 242 239 240 245 247
224 227 231 236 237 234 235 233 228 228 230 231 233 236 238 240 244 249 253 255 256 256 256 259 262 263 262 261 259 261 263 260 255 252 247 243 244 245 243 243 249 256
225 229 233 235 236 235 237 235 233 236 235 231 232 236 242 247 249 252 255 257 258 258 256 257 262 265 263 261 259 261 264 262 258 255 250 244 243 244 246 245 248 258
231 234 234 234 234 235 238 237 236 239 238 236 237 240 245 249 250 249 252 253 255 254 254 256 261 264 263 261 260 262 264 263 260 256 250 244 242 243 245 243 244 253
233 235 234 234 235 237 240 240 239 241 241 238 238 239 241 245 248 249 252 254 254 254 254 254 257 259 259 258 259 261 262 262 261 256 248 242 240 239 239 237 238 246
229 233 232 233 237 240 242 241 240 242 241 239 240 241 243 247 249 252 255 255 255 254 252 251 250 252 255 257 258 259 259 260 261 256 247 243 243 243 242 239 238 241
227 230 232 235 239 241 241 242 243 244 245 247 249 248 248 250 251 253 255 255 254 252 251 253 253 253 255 257 258 258 258 258 259 254 249 248 249 249 249 248 248 245
225 228 232 235 239 240 240 242 245 247 249 252 253 252 252 253 255 258 259 258 257 255 254 258 260 256 253 253 253 254 255 254 254 252 251 253 254 254 255 254 254 252
224 229 234 238 241 244 244 244 246 250 252 251 252 254 256 257 259 262 262 261 260 258 256 258 258 252 247 248 250 250 250 250 249 250 252 255 257 259 261 258 254 254
233 237 241 245 248 250 252 248 246 248 250 250 251 254 257 259 260 261 263 264 263 258 251 250 249 244 242 246 248 249 249 248 248 249 252 256 259 262 263 259 250 247
241 239 239 242 247 249 249 246 243 246 250 252 253 255 257 259 258 258 261 262 260 253 246 242 241 240 241 244 244 245 247 248 248 249 251 254 257 259 259 253 245 243